Hettinger, ND

2:47 AM MDT on May 30, 2017 (GMT -0600)
Hettinger Municipal

Weather History for KHEI - September, 2013

Change the Weather History Date:

Friday, September 27, 2013

  Actual Average Record
Temperature  
Mean Temperature 47 °F -  
Max Temperature 52 °F 66 °F 88 °F (2011)
Min Temperature 42 °F 36 °F 28 °F (1999)
Degree Days  
Heating Degree Days 18 14  
Month to date heating degree days 114 237  
Since 1 July heating degree days 133 327  
Cooling Degree Days 0 0  
Month to date cooling degree days 63 24  
Year to date cooling degree days 310 373  
Moisture  
Dew Point 40 °F    
Average Humidity 81    
Maximum Humidity 92    
Minimum Humidity 61    
Precipitation  
Precipitation 0.07 in 0.04 in 0.34 in (2006)
Month to date precipitation 3.38 1.55  
Year to date precipitation 19.98 13.84  
Sea Level Pressure  
Sea Level Pressure 29.90 in    
Wind  
Wind Speed 10 mph (NW)    
Max Wind Speed 18 mph    
Max Gust Speed 24 mph    
Visibility 10 miles    
Events Rain    
T = Trace of Precipitation, MM = Missing Value Source: NWS Daily Summary

Daily Weather History Graph

Daily Weather History Graph

Search for Another Location

Airport or City:

Trip Planner

Search our weather history database for the weather conditions in past years. The results will help you decide how hot, cold, wet, or windy it might be!

Date:

Astronomy

Sep. 27, 2013 Rise Set
Actual Time 6:44 AM MDT 6:37 PM MDT
Civil Twilight 6:14 AM MDT 7:07 PM MDT
Nautical Twilight 5:39 AM MDT 7:42 PM MDT
Astronomical Twilight 5:04 AM MDT 8:17 PM MDT
Moon No Moon Rise 2:34 PM MDT (9/27)
Length of Visible Light 12h 53m
Length of Day
11h 53m
Last Quarter, 44% of the Moon is Illuminated
Sep 27
Last Quarter
Oct 4
New
Oct 11
First Quarter
Oct 18
Full
Oct 26
Last Quarter

Hourly Weather History & Observations

Time (MDT) Temp. Windchill Dew Point Humidity Pressure Visibility Wind Dir Wind Speed Gust Speed Precip Events Conditions
12:53 AM 46.9 °F - 39.9 °F 77% 29.89 in 10.0 mi NNW 11.5 mph - N/A   Mostly Cloudy
1:53 AM 46.0 °F 39.3 °F 39.9 °F 79% 29.88 in 10.0 mi NNW 16.1 mph 21.9 mph N/A   Overcast
2:53 AM 46.0 °F 40.6 °F 39.9 °F 79% 29.87 in 10.0 mi NNW 11.5 mph - N/A   Overcast
3:53 AM 45.0 °F 38.2 °F 39.9 °F 82% 29.91 in 10.0 mi WNW 15.0 mph 20.7 mph N/A   Overcast
4:53 AM 45.0 °F 39.3 °F 42.1 °F 90% 29.91 in 10.0 mi WNW 11.5 mph 18.4 mph 0.00 in   Overcast
5:03 AM 44.6 °F 38.1 °F 41.0 °F 87% 29.89 in 10.0 mi NW 13.8 mph - N/A   Overcast
5:53 AM 45.0 °F 39.7 °F 42.1 °F 90% 29.89 in 10.0 mi NW 10.4 mph - 0.00 in Rain Light Rain
6:53 AM 45.0 °F 40.6 °F 41.0 °F 86% 29.91 in 10.0 mi WNW 8.1 mph - 0.00 in   Overcast
7:53 AM 46.0 °F 42.5 °F 41.0 °F 83% 29.88 in 10.0 mi NNW 6.9 mph - N/A   Overcast
8:53 AM 46.0 °F 41.9 °F 41.0 °F 83% 29.92 in 10.0 mi NW 8.1 mph - N/A   Overcast
9:53 AM 46.9 °F - 39.9 °F 77% 29.92 in 10.0 mi NW 11.5 mph - N/A   Overcast
10:53 AM 50.0 °F - 39.9 °F 68% 29.91 in 10.0 mi NNW 13.8 mph - N/A   Overcast
11:53 AM 48.9 °F - 39.9 °F 71% 29.92 in 10.0 mi WNW 11.5 mph - N/A   Overcast
12:53 PM 48.0 °F - 41.0 °F 77% 29.89 in 10.0 mi WNW 15.0 mph - N/A   Overcast
1:53 PM 48.0 °F - 37.9 °F 68% 29.90 in 10.0 mi NW 12.7 mph 18.4 mph N/A   Overcast
2:53 PM 48.9 °F - 39.0 °F 69% 29.86 in 10.0 mi NNW 11.5 mph - N/A   Overcast
3:53 PM 50.0 °F - 37.9 °F 63% 29.89 in 10.0 mi NW 13.8 mph 18.4 mph N/A   Overcast
4:53 PM 46.9 °F - 39.9 °F 77% 29.91 in 10.0 mi WNW 10.4 mph - 0.00 in Rain Light Rain
5:53 PM 45.0 °F 40.6 °F 41.0 °F 86% 29.93 in 10.0 mi WNW 8.1 mph - 0.03 in Rain Light Rain
6:53 PM 43.0 °F 38.8 °F 39.9 °F 89% 29.95 in 10.0 mi WNW 6.9 mph - 0.02 in Rain Light Rain
7:53 PM 43.0 °F 40.3 °F 39.9 °F 89% 29.92 in 10.0 mi WNW 4.6 mph - 0.02 in   Overcast
8:53 PM 43.0 °F - 39.9 °F 89% 29.94 in 10.0 mi Calm Calm - N/A   Mostly Cloudy
9:53 PM 43.0 °F 37.7 °F 39.0 °F 86% 29.93 in 10.0 mi West 9.2 mph - N/A   Overcast
10:53 PM 43.0 °F 38.8 °F 39.0 °F 86% 29.91 in 10.0 mi West 6.9 mph - N/A   Overcast
11:53 PM 43.0 °F 38.2 °F 39.0 °F 86% 29.89 in 10.0 mi West 8.1 mph - N/A   Overcast